User: anonymous   Login
Location: Newark
(43.0000°N, 1.6781°W)
Time: 21:24:06
(UTC+00:00)
Language:

Transit 2A - Orbit

View from above orbital plane
View from above orbital plane
View from above satellite
View from above satellite

Ground track
Ground track

The orbit data is extracted from the following two-line orbital elements,

1 00045U 60007A   21107.59883348 -.00000030  00000-0  19216-4 0  9998
2 00045  66.6938 299.3772 0247887  94.3286 268.6179 14.33715452109437
Epoch (UTC): 17 April 2021 14:22:19
Eccentricity: 0.0247887
inclination: 66.6938°
perigee height: 602 km
apogee height: 957 km
right ascension of ascending node: 299.3772°
argument of perigee: 94.3286°
revolutions per day: 14.33715452
mean anomaly at epoch: 268.6179°
orbit number at epoch: 10943

The dashed part of the orbit path shows where the satellite is in the earth's shadow,  

DLR